CST394X SBVT-SBGR

Flight info

Callsign CST394X
Flight time 1h 8m
Altitude 36000
Route USVAG DCT SIDUR DCT EDMUS
Aircraft B77L/H-SDE1E2E3FGHIJ2J3J4J5M1RWXY/LB1D1

Departure

Time 2026-05-05 15:26
Airport Eurico de Aguiar Salles International Airport (SBVT)

Arrival

Time 2026-05-05 16:34
Airport São Paulo/Guarulhos–Governor André Franco Montoro International Airport (SBGR)
Time Latitude Longitude Altitude Speed Heading
2026-05-05 15:11 -20.26689 -40.28134 30 ft 0 kts 262°
2026-05-05 15:20 -20.26688 -40.28129 30 ft 4 kts 262°
2026-05-05 15:21 -20.26685 -40.28106 28 ft 3 kts 262°
2026-05-05 15:21 -20.26681 -40.28078 28 ft 4 kts 261°
2026-05-05 15:21 -20.26677 -40.28050 30 ft 4 kts 265°
2026-05-05 15:21 -20.26678 -40.28023 30 ft 4 kts 296°
2026-05-05 15:22 -20.26693 -40.28011 28 ft 4 kts 351°
2026-05-05 15:22 -20.26705 -40.28009 28 ft 0 kts 351°
2026-05-05 15:23 -20.26704 -40.28009 31 ft 0 kts 351°
2026-05-05 15:23 -20.26698 -40.28010 31 ft 1 kts 351°
2026-05-05 15:24 -20.26681 -40.28013 31 ft 5 kts 351°
2026-05-05 15:24 -20.26638 -40.28001 31 ft 8 kts 37°
2026-05-05 15:24 -20.26614 -40.27949 30 ft 9 kts 79°
2026-05-05 15:24 -20.26582 -40.27871 28 ft 13 kts 39°
2026-05-05 15:25 -20.26489 -40.27863 29 ft 15 kts 353°
2026-05-05 15:25 -20.26140 -40.27915 30 ft 93 kts 352°
2026-05-05 15:25 -20.25246 -40.28048 33 ft 163 kts 352°
2026-05-05 15:25 -20.24012 -40.28211 452 ft 181 kts 352°
2026-05-05 15:26 -20.22797 -40.28330 1453 ft 175 kts
2026-05-05 15:26 -20.21661 -40.27911 2092 ft 179 kts 47°
2026-05-05 15:26 -20.21151 -40.26664 2452 ft 200 kts 89°
2026-05-05 15:26 -20.21482 -40.25134 2738 ft 230 kts 118°
2026-05-05 15:27 -20.22601 -40.23863 3362 ft 244 kts 150°
2026-05-05 15:27 -20.24265 -40.23515 4100 ft 256 kts 188°
2026-05-05 15:27 -20.25981 -40.24076 4929 ft 263 kts 199°
2026-05-05 15:27 -20.27620 -40.24929 5775 ft 267 kts 218°
2026-05-05 15:28 -20.28894 -40.26386 6686 ft 271 kts 230°
2026-05-05 15:28 -20.30021 -40.28013 7581 ft 275 kts 232°
2026-05-05 15:28 -20.31148 -40.29686 8456 ft 280 kts 232°
2026-05-05 15:28 -20.32309 -40.31385 9312 ft 287 kts 233°
2026-05-05 15:29 -20.33520 -40.33123 10129 ft 295 kts 233°
2026-05-05 15:29 -20.34775 -40.34895 10796 ft 308 kts 233°
2026-05-05 15:29 -20.36138 -40.36792 11034 ft 338 kts 232°
2026-05-05 15:29 -20.37621 -40.38833 11273 ft 366 kts 232°
2026-05-05 15:30 -20.39218 -40.41015 11938 ft 379 kts 232°
2026-05-05 15:30 -20.40861 -40.43249 12887 ft 386 kts 232°
2026-05-05 15:30 -20.42535 -40.45518 13835 ft 392 kts 232°
2026-05-05 15:30 -20.44232 -40.47816 14720 ft 396 kts 232°
2026-05-05 15:31 -20.45944 -40.50130 15679 ft 399 kts 232°
2026-05-05 15:31 -20.47667 -40.52463 16598 ft 402 kts 232°
2026-05-05 15:31 -20.49408 -40.54818 17476 ft 406 kts 232°
2026-05-05 15:31 -20.51164 -40.57198 18378 ft 410 kts 232°
2026-05-05 15:32 -20.52938 -40.59602 19135 ft 415 kts 232°
2026-05-05 15:32 -20.54730 -40.62032 19865 ft 419 kts 232°
2026-05-05 15:32 -20.56542 -40.64490 20656 ft 422 kts 232°
2026-05-05 15:32 -20.58366 -40.66965 21439 ft 425 kts 232°
2026-05-05 15:33 -20.60202 -40.69458 22221 ft 428 kts 232°
2026-05-05 15:33 -20.62047 -40.71962 22982 ft 431 kts 232°
2026-05-05 15:33 -20.63910 -40.74495 23696 ft 435 kts 232°
2026-05-05 15:33 -20.65788 -40.77048 24295 ft 439 kts 232°
2026-05-05 15:34 -20.67659 -40.79592 24856 ft 443 kts 232°
2026-05-05 15:34 -20.69553 -40.82196 25434 ft 446 kts 234°
2026-05-05 15:34 -20.71327 -40.84929 26050 ft 448 kts 236°
2026-05-05 15:34 -20.73069 -40.87718 26534 ft 455 kts 236°
2026-05-05 15:35 -20.74824 -40.90551 27020 ft 460 kts 236°
2026-05-05 15:35 -20.76597 -40.93417 27605 ft 463 kts 236°
2026-05-05 15:35 -20.78377 -40.96292 28274 ft 464 kts 236°
2026-05-05 15:35 -20.80166 -40.99177 28866 ft 467 kts 236°
2026-05-05 15:36 -20.81973 -41.02084 29366 ft 471 kts 236°
2026-05-05 15:36 -20.83796 -41.05017 29854 ft 475 kts 236°
2026-05-05 15:36 -20.85631 -41.07968 30346 ft 477 kts 236°
2026-05-05 15:36 -20.87466 -41.10918 30918 ft 475 kts 236°
2026-05-05 15:37 -20.89284 -41.13840 31679 ft 469 kts 236°
2026-05-05 15:37 -20.91063 -41.16703 32335 ft 466 kts 237°
2026-05-05 15:37 -20.92850 -41.19581 32958 ft 463 kts 237°
2026-05-05 15:37 -20.94629 -41.22446 33573 ft 461 kts 237°
2026-05-05 15:38 -20.96394 -41.25291 34202 ft 457 kts 237°
2026-05-05 15:38 -20.97646 -41.27310 34586 ft 455 kts 237°
2026-05-05 15:38 -20.98515 -41.28712 34827 ft 454 kts 237°
2026-05-05 15:38 -21.00257 -41.31523 35296 ft 453 kts 237°
2026-05-05 15:39 -21.01994 -41.34328 35740 ft 451 kts 237°
2026-05-05 15:39 -21.03724 -41.37123 36225 ft 449 kts 237°
2026-05-05 15:39 -21.05446 -41.39903 36692 ft 445 kts 237°
2026-05-05 15:39 -21.07156 -41.42669 37059 ft 446 kts 237°
2026-05-05 15:40 -21.08873 -41.45448 37411 ft 447 kts 237°
2026-05-05 15:40 -21.10581 -41.48215 37820 ft 445 kts 237°
2026-05-05 15:40 -21.12285 -41.50975 38198 ft 444 kts 237°
2026-05-05 15:41 -21.15698 -41.56507 38193 ft 450 kts 237°
2026-05-05 15:41 -21.19150 -41.62106 38203 ft 451 kts 237°
2026-05-05 15:42 -21.22604 -41.67714 38208 ft 451 kts 237°
2026-05-05 15:42 -21.26059 -41.73331 38201 ft 451 kts 237°
2026-05-05 15:43 -21.29519 -41.78959 38197 ft 451 kts 237°
2026-05-05 15:43 -21.32969 -41.84579 38196 ft 451 kts 237°
2026-05-05 15:44 -21.36419 -41.90204 38198 ft 451 kts 237°
2026-05-05 15:44 -21.39865 -41.95828 38201 ft 451 kts 237°
2026-05-05 15:45 -21.43309 -42.01455 38191 ft 450 kts 237°
2026-05-05 15:45 -21.46745 -42.07076 38202 ft 450 kts 237°
2026-05-05 15:46 -21.50156 -42.12658 38195 ft 449 kts 237°
2026-05-05 15:46 -21.53585 -42.18278 38202 ft 449 kts 237°
2026-05-05 15:47 -21.57007 -42.23893 38203 ft 449 kts 237°
2026-05-05 15:47 -21.60431 -42.29514 38203 ft 449 kts 237°
2026-05-05 15:48 -21.63853 -42.35139 38199 ft 449 kts 237°
2026-05-05 15:48 -21.67277 -42.40773 38189 ft 450 kts 237°
2026-05-05 15:49 -21.70693 -42.46400 38194 ft 449 kts 237°
2026-05-05 15:49 -21.74086 -42.51993 38194 ft 449 kts 237°
2026-05-05 15:50 -21.77499 -42.57628 38201 ft 449 kts 237°
2026-05-05 15:50 -21.80909 -42.63262 38194 ft 448 kts 237°
2026-05-05 15:51 -21.84305 -42.68879 38222 ft 448 kts 237°
2026-05-05 15:51 -21.87697 -42.74495 38210 ft 447 kts 237°
2026-05-05 15:52 -21.91088 -42.80115 38210 ft 447 kts 237°
2026-05-05 15:52 -21.94456 -42.85704 38206 ft 447 kts 237°
2026-05-05 15:53 -21.97840 -42.91325 38230 ft 447 kts 237°
2026-05-05 15:53 -22.01229 -42.96960 38228 ft 447 kts 237°
2026-05-05 15:54 -22.04608 -43.02582 38219 ft 447 kts 237°
2026-05-05 15:54 -22.07984 -43.08207 38208 ft 446 kts 237°
2026-05-05 15:55 -22.11332 -43.13792 38210 ft 446 kts 237°
2026-05-05 15:55 -22.14695 -43.19405 38206 ft 445 kts 237°
2026-05-05 15:56 -22.18055 -43.25019 38210 ft 445 kts 237°
2026-05-05 15:56 -22.21408 -43.30632 38213 ft 445 kts 237°
2026-05-05 15:57 -22.24763 -43.36251 38204 ft 445 kts 237°
2026-05-05 15:57 -22.28120 -43.41878 38202 ft 446 kts 237°
2026-05-05 15:58 -22.31471 -43.47503 38201 ft 445 kts 237°
2026-05-05 15:58 -22.34798 -43.53093 38210 ft 445 kts 237°
2026-05-05 15:59 -22.38149 -43.58730 38193 ft 445 kts 237°
2026-05-05 15:59 -22.41492 -43.64357 38183 ft 445 kts 237°
2026-05-05 16:00 -22.44833 -43.69988 38179 ft 444 kts 237°
2026-05-05 16:00 -22.47606 -43.74666 38184 ft 444 kts 237°
2026-05-05 16:01 -22.50933 -43.80287 38200 ft 444 kts 237°
2026-05-05 16:01 -22.54265 -43.85921 38185 ft 443 kts 237°
2026-05-05 16:02 -22.57583 -43.91535 38185 ft 443 kts 237°
2026-05-05 16:02 -22.60900 -43.97156 38178 ft 442 kts 237°
2026-05-05 16:03 -22.64191 -44.02738 38188 ft 442 kts 237°
2026-05-05 16:03 -22.67496 -44.08351 38182 ft 442 kts 237°
2026-05-05 16:04 -22.70808 -44.13981 38181 ft 442 kts 237°
2026-05-05 16:04 -22.74109 -44.19604 38191 ft 443 kts 238°
2026-05-05 16:05 -22.76886 -44.25563 38182 ft 444 kts 246°
2026-05-05 16:05 -22.79189 -44.31763 38191 ft 443 kts 246°
2026-05-05 16:06 -22.81494 -44.37956 38188 ft 443 kts 246°
2026-05-05 16:06 -22.83794 -44.44098 38196 ft 442 kts 246°
2026-05-05 16:07 -22.86111 -44.50272 38200 ft 441 kts 246°
2026-05-05 16:07 -22.88415 -44.56421 38194 ft 441 kts 246°
2026-05-05 16:08 -22.90721 -44.62584 38204 ft 441 kts 246°
2026-05-05 16:08 -22.93022 -44.68743 38195 ft 440 kts 246°
2026-05-05 16:09 -22.95317 -44.74893 38201 ft 439 kts 246°
2026-05-05 16:09 -22.97611 -44.81047 37622 ft 445 kts 246°
2026-05-05 16:09 -22.98773 -44.84170 36949 ft 444 kts 246°
2026-05-05 16:10 -22.99928 -44.87273 36187 ft 443 kts 246°
2026-05-05 16:10 -23.01083 -44.90380 35381 ft 444 kts 246°
2026-05-05 16:10 -23.02242 -44.93498 34535 ft 447 kts 246°
2026-05-05 16:10 -23.03394 -44.96602 33562 ft 450 kts 246°
2026-05-05 16:11 -23.04568 -44.99765 32673 ft 452 kts 246°
2026-05-05 16:11 -23.07481 -45.09402 31349 ft 452 kts 258°
2026-05-05 16:12 -23.07904 -45.12802 31332 ft 457 kts 262°
2026-05-05 16:12 -23.08583 -45.19689 31226 ft 459 kts 262°
2026-05-05 16:13 -23.09610 -45.29969 31095 ft 455 kts 262°
2026-05-05 16:13 -23.10305 -45.36778 31005 ft 453 kts 261°
2026-05-05 16:14 -23.11687 -45.50304 30449 ft 447 kts 261°
2026-05-05 16:15 -23.12364 -45.56997 28968 ft 443 kts 261°
2026-05-05 16:15 -23.13033 -45.63637 27487 ft 440 kts 261°
2026-05-05 16:16 -23.13689 -45.70167 26191 ft 435 kts 261°
2026-05-05 16:16 -23.14340 -45.76674 24956 ft 432 kts 261°
2026-05-05 16:17 -23.14985 -45.83134 23792 ft 429 kts 262°
2026-05-05 16:17 -23.15305 -45.86351 23156 ft 427 kts 262°
2026-05-05 16:18 -23.15933 -45.92705 22078 ft 419 kts 262°
2026-05-05 16:18 -23.16241 -45.95836 21556 ft 415 kts 262°
2026-05-05 16:18 -23.16856 -46.02062 20168 ft 417 kts 262°
2026-05-05 16:19 -23.17169 -46.05236 19223 ft 426 kts 262°
2026-05-05 16:19 -23.17484 -46.08447 18471 ft 427 kts 263°
2026-05-05 16:19 -23.18110 -46.14870 16882 ft 426 kts 263°
2026-05-05 16:20 -23.18723 -46.21187 15725 ft 415 kts 263°
2026-05-05 16:20 -23.19292 -46.27084 14693 ft 372 kts 263°
2026-05-05 16:21 -23.19828 -46.32651 13699 ft 368 kts 263°
2026-05-05 16:22 -23.20617 -46.40850 12255 ft 358 kts 263°
2026-05-05 16:22 -23.21125 -46.46195 11314 ft 352 kts 263°
2026-05-05 16:23 -23.21619 -46.51364 10860 ft 332 kts 263°
2026-05-05 16:23 -23.21852 -46.53813 10693 ft 320 kts 263°
2026-05-05 16:23 -23.22293 -46.58499 10310 ft 300 kts 262°
2026-05-05 16:24 -23.22504 -46.60723 10114 ft 293 kts 263°
2026-05-05 16:24 -23.22707 -46.62871 9851 ft 287 kts 263°
2026-05-05 16:24 -23.23109 -46.67131 9204 ft 279 kts 262°
2026-05-05 16:25 -23.23309 -46.69212 8911 ft 274 kts 262°
2026-05-05 16:25 -23.24014 -46.73218 8539 ft 272 kts 257°
2026-05-05 16:25 -23.24405 -46.75245 8361 ft 276 kts 257°
2026-05-05 16:26 -23.25439 -46.79211 7943 ft 269 kts 232°
2026-05-05 16:26 -23.28727 -46.80644 7659 ft 270 kts 175°
2026-05-05 16:27 -23.30559 -46.80216 7540 ft 270 kts 159°
2026-05-05 16:27 -23.32190 -46.79191 7348 ft 271 kts 144°
2026-05-05 16:27 -23.33688 -46.77943 7200 ft 273 kts 142°
2026-05-05 16:27 -23.35155 -46.76685 7082 ft 271 kts 142°
2026-05-05 16:28 -23.36638 -46.75433 6819 ft 269 kts 143°
2026-05-05 16:28 -23.38122 -46.74208 6550 ft 266 kts 144°
2026-05-05 16:28 -23.39597 -46.73007 6338 ft 264 kts 144°
2026-05-05 16:28 -23.41078 -46.71811 6185 ft 265 kts 143°
2026-05-05 16:29 -23.42529 -46.70614 5970 ft 255 kts 139°
2026-05-05 16:29 -23.43646 -46.69182 5769 ft 241 kts 125°
2026-05-05 16:29 -23.44551 -46.67708 5524 ft 227 kts 123°
2026-05-05 16:29 -23.45391 -46.66307 5297 ft 214 kts 123°
2026-05-05 16:30 -23.46195 -46.64989 5122 ft 206 kts 123°
2026-05-05 16:30 -23.46914 -46.63687 4925 ft 204 kts 109°
2026-05-05 16:30 -23.47004 -46.62163 4720 ft 203 kts 78°
2026-05-05 16:30 -23.46729 -46.60672 4524 ft 198 kts 78°
2026-05-05 16:31 -23.46405 -46.59250 4345 ft 187 kts 73°
2026-05-05 16:31 -23.46049 -46.57951 4145 ft 170 kts 72°
2026-05-05 16:31 -23.45733 -46.56789 4042 ft 157 kts 73°
2026-05-05 16:31 -23.45416 -46.55634 3861 ft 160 kts 73°
2026-05-05 16:32 -23.45106 -46.54493 3652 ft 154 kts 73°
2026-05-05 16:32 -23.44805 -46.53387 3468 ft 153 kts 73°
2026-05-05 16:32 -23.44501 -46.52272 3276 ft 153 kts 73°
2026-05-05 16:32 -23.44204 -46.51181 3074 ft 147 kts 73°
2026-05-05 16:33 -23.43909 -46.50116 2873 ft 146 kts 74°
2026-05-05 16:33 -23.43626 -46.49056 2668 ft 144 kts 73°
2026-05-05 16:33 -23.43340 -46.48007 2478 ft 146 kts 73°
2026-05-05 16:33 -23.43077 -46.47036 2471 ft 115 kts 73°
2026-05-05 16:34 -23.42896 -46.46370 2472 ft 71 kts 73°
2026-05-05 16:34 -23.42771 -46.46015 2466 ft 22 kts 20°
2026-05-05 16:34 -23.42638 -46.46047 2473 ft 15 kts 341°
2026-05-05 16:34 -23.42604 -46.46060 2471 ft 0 kts 340°
2026-05-05 16:35 -23.42599 -46.46062 2471 ft 1 kts 340°
2026-05-05 16:35 -23.42589 -46.46070 2470 ft 3 kts 315°
2026-05-05 16:35 -23.42586 -46.46121 2467 ft 13 kts 268°
2026-05-05 16:35 -23.42614 -46.46246 2467 ft 19 kts 253°
2026-05-05 16:36 -23.42647 -46.46386 2468 ft 19 kts 256°
2026-05-05 16:36 -23.42683 -46.46536 2469 ft 21 kts 253°
2026-05-05 16:36 -23.42727 -46.46691 2475 ft 25 kts 253°
2026-05-05 16:36 -23.42782 -46.46892 2474 ft 28 kts 253°
2026-05-05 16:37 -23.42839 -46.47094 2474 ft 28 kts 253°
2026-05-05 16:37 -23.42893 -46.47298 2470 ft 28 kts 254°
2026-05-05 16:37 -23.42939 -46.47471 2473 ft 21 kts 254°
2026-05-05 16:37 -23.42978 -46.47620 2468 ft 21 kts 254°
2026-05-05 16:38 -23.43020 -46.47778 2472 ft 24 kts 254°
2026-05-05 16:38 -23.43068 -46.47960 2475 ft 25 kts 254°
2026-05-05 16:38 -23.43064 -46.48135 2472 ft 24 kts 314°
2026-05-05 16:38 -23.43058 -46.48294 2471 ft 22 kts 260°
2026-05-05 16:39 -23.43033 -46.48445 2471 ft 22 kts 316°
2026-05-05 16:39 -23.42989 -46.48598 2469 ft 22 kts 275°
2026-05-05 16:39 -23.42949 -46.48750 2475 ft 22 kts 328°
2026-05-05 16:39 -23.42799 -46.48743 2473 ft 22 kts
2026-05-05 16:40 -23.42697 -46.48749 2474 ft 8 kts 309°
2026-05-05 16:40 -23.42687 -46.48788 2469 ft 4 kts 276°
2026-05-05 16:40 -23.42686 -46.48805 2469 ft 0 kts 276°
2026-05-05 16:40 -23.42685 -46.48808 2469 ft 0 kts 276°